Location: *
(40.9167°N, 9.5000°E)
Time: 03:28:18
(UTC+00:00)

Cosmos 1300 - Pass Details

Date: 09 April 2020
Orbit: 511 x 515 km, 82.5° (Epoch: 31 May)

Event Time Altitude Azimuth Distance (km) Brightness Sun altitude
Exits shadow 18:43:34 12° 128° (SE) 1,626 4.6 -9.5°
Maximum altitude 18:45:50 18° 88° (E) 1,299 4.2 -9.9°
Drops below altitude 10° 18:48:30 10° 43° (NE) 1,747 5.1 -10.4°
Sets 18:51:07 0° 25° (NNE) 2,640 6.3 -10.9°
